FLOCK 4Y 28

导读 | 豆包AI

FLOCK 4Y 28是美国Planet公司(原行星实验室)研制的3U遥感立方体卫星,属于“鸽群”(Flock)星座,于2023年1月3日发射。单星重约5千克,运行于近地轨道,配备高倍率望远镜与相机,可实现3-5米分辨率对地光学成像,每日更新全球遥感影像,服务于农业监测、自然资源管理、城市规划等多个领域,是全球对地观测星座的组成部分。

基本信息
目录编号:
55033
目录名称:
FLOCK 4Y 28
国际标识:
2023-001AA
轨道中心:
EARTH
卫星名称:
FLOCK 4Y 28
卫星全名:
--
卫星状态:
已陨落 最后检测时间 2025-02-12
发射日期:
2023-01-03 UTC
国别 :
美国 (US)
星等 :
--
轨道信息
数据来源 国际轨道数据
星历时间: 2025-02-09T11:01:23+0800
轨道信息已过期469天
半长轴: 6559.813km
偏心率: 0.000832
轨道倾角: 97.367°
近地点辐角 284.793°
升交点赤经 116.991°
平近点角 75.245°
近地点: 176.22km
远地点: 187.136km
周期: 88.125分钟
每日圈数: 16.340511
详细信息
使用方式:
暂无